Location: Auckland
(36.8670°S, 174.7670°E)
Time: 13:43:33
(UTC+12:00)

Courier 1B Rocket - Pass Details

Date: 22 July 2019
Orbit: 920 x 1202 km, 28.3° (Epoch: 19 August)

Event Time Altitude Azimuth Distance (km) Brightness Sun altitude
Rises 03:06:50 0° 322° (NW) 4,091 - -51.7°
Reaches altitude 10° 03:10:24 10° 335° (NNW) 3,126 - -51.0°
Maximum altitude 03:16:08 22° 23° (NNE) 2,303 - -49.9°
Exits shadow 03:20:13 15° 61° (ENE) 2,723 7.6 -49.1°
Drops below altitude 10° 03:21:44 10° 71° (ENE) 3,056 8.0 -48.8°
Sets 03:25:10 0° 85° (E) 3,977 8.8 -48.1°
